Theta_e
344 345 349 349 350 351 350 347 349 349 349 350 351 351 350 348 347 347 346 342 341 340 341 342 343 342 342 342 342 342 343 342 342 343 342 342 342 342 342 341 340 339 339
346 348 350 350 350 350 350 346 349 350 352 351 350 346 341 340 340 343 342 338 338 338 339 334 332 331 331 331 331 332 333 334 338 338 337 339 339 339 340 340 340 340 339
347 348 351 354 353 354 355 352 352 353 349 334 331 334 335 336 336 338 335 334 335 331 329 327 326 326 326 326 326 326 328 330 332 334 333 334 334 335 335 336 337 337 336
354 352 354 355 356 356 355 354 350 340 329 331 332 333 332 333 335 332 328 326 323 323 321 323 325 324 323 322 322 323 324 325 327 329 329 328 329 329 329 328 328 327 329
356 355 357 359 356 355 354 348 333 329 329 330 328 326 327 330 328 324 322 321 319 320 321 323 324 324 324 324 323 323 323 322 323 322 322 323 323 323 323 324 325 326 326
357 358 358 358 355 353 346 330 328 326 326 326 324 323 324 321 319 318 317 318 319 319 320 323 323 324 323 322 319 318 318 317 316 316 315 314 314 315 315 315 317 322 324
357 358 357 356 354 342 329 327 325 325 324 323 322 319 318 321 324 319 314 316 315 315 318 320 317 315 314 321 318 316 315 315 314 315 316 315 316 316 316 316 316 316 320
358 357 356 356 343 329 327 325 324 323 322 322 319 319 321 325 324 317 308 307 307 308 311 314 315 316 317 317 317 319 318 317 316 316 317 317 317 317 316 315 315 315 315
358 358 358 347 329 326 324 323 322 322 322 320 318 319 323 326 325 318 310 312 313 313 314 315 315 315 315 315 316 319 320 316 318 317 317 317 317 317 317 314 314 315 314
360 357 346 328 326 324 324 323 324 323 318 317 316 319 323 326 325 320 313 313 314 315 315 315 315 315 315 316 315 315 314 314 314 314 313 314 314 316 315 314 314 314 314
354 340 327 325 324 325 325 325 324 316 312 311 311 316 323 327 326 317 315 315 315 316 316 316 316 316 315 315 315 314 314 313 312 311 312 312 312 312 312 312 313 312 312
338 327 325 324 324 325 326 326 321 311 308 307 308 313 320 323 324 316 315 315 316 316 316 316 316 316 315 315 314 313 312 310 309 308 308 309 310 310 310 310 310 311 312
327 325 324 324 325 326 327 325 314 309 310 311 309 309 311 314 316 316 315 316 317 317 316 316 316 315 315 314 313 311 311 310 309 308 308 308 308 310 310 310 309 310 310
325 324 324 325 326 327 328 323 314 315 317 316 315 313 312 312 313 314 315 316 317 317 316 316 316 315 314 313 311 310 310 309 309 308 308 307 307 307 308 307 307 306 306
324 323 324 326 327 328 328 320 318 319 319 318 318 318 314 311 312 310 313 316 316 317 316 316 315 314 314 312 310 308 309 309 309 308 307 306 305 304 304 305 306 306 306
323 323 324 326 328 327 326 320 322 322 323 323 322 320 318 313 310 312 314 316 316 316 316 315 315 314 313 311 310 308 309 309 308 308 307 306 305 303 304 306 306 306 306
322 323 324 325 327 326 324 321 323 324 324 322 323 322 319 317 310 312 315 316 316 316 316 315 315 315 313 311 310 309 308 308 308 308 307 307 305 303 303 305 306 306 306
323 323 324 325 326 326 323 323 324 324 321 319 319 319 318 315 312 311 315 315 315 316 316 316 315 315 313 311 311 311 309 308 308 307 306 305 303 302 302 303 305 306 306
323 324 324 324 326 325 324 325 325 324 323 320 315 312 313 310 310 309 315 316 317 316 316 316 315 315 314 312 311 311 309 308 307 306 305 304 302 301 300 301 304 305 306
324 323 324 324 326 325 324 326 326 325 324 317 314 315 310 311 314 313 314 317 316 316 316 316 316 315 314 312 311 311 308 306 306 306 305 303 302 302 301 301 303 304 305
327 325 324 324 326 325 325 327 326 326 325 319 317 321 316 314 316 316 316 316 316 317 316 316 316 315 314 313 312 311 308 307 307 306 305 304 303 302 301 301 303 305 304
329 326 325 324 325 326 325 326 326 325 323 321 321 322 319 319 317 316 317 317 317 317 317 317 316 315 314 313 312 310 308 308 307 305 305 304 303 302 303 304 304 304 304
326 325 325 325 325 326 326 327 329 326 324 323 325 324 323 321 322 319 316 316 317 317 317 317 316 315 314 312 312 310 309 308 306 305 305 304 303 302 303 303 303 303 303
326 326 325 324 325 326 328 330 332 330 328 327 327 328 327 326 326 325 320 317 316 316 317 317 316 315 314 312 311 309 308 307 305 305 304 304 303 303 303 303 303 302 302
330 328 326 325 324 326 329 332 333 333 333 331 329 329 328 329 327 327 325 321 317 315 317 317 316 315 313 312 309 307 306 306 306 305 304 304 303 303 303 303 302 301 301
336 331 328 326 325 326 329 331 334 334 333 334 332 331 331 330 330 330 328 321 317 317 317 317 316 315 313 311 307 308 308 306 306 306 305 304 304 303 303 302 302 302 302
Wind_Speed
16 14 12 13 13 11 10 11 12 11 11 13 14 9 7 6 2 2 3 3 3 4 4 6 5 6 7 8 8 8 7 7 7 4 9 7 7 7 8 9 9 10 14
17 15 15 14 12 12 14 11 8 9 9 10 8 7 5 3 1 2 3 2 1 3 3 4 6 7 6 5 6 5 5 4 2 1 4 3 4 4 4 4 6 13 13
17 18 15 14 15 15 14 14 8 8 9 7 6 4 3 2 3 3 2 3 4 7 7 8 10 10 10 11 12 13 14 12 10 8 7 7 8 8 8 9 9 9 11
18 18 18 17 14 15 13 9 7 6 4 3 3 3 4 4 2 6 9 9 7 8 9 11 12 13 15 16 15 17 16 15 15 14 13 11 9 10 8 10 10 10 7
20 18 17 15 14 12 11 8 6 5 6 7 7 7 8 9 8 7 8 7 9 9 10 11 12 13 14 16 16 17 17 17 17 17 17 16 16 17 17 16 13 12 9
23 20 19 17 15 12 10 8 9 10 11 10 9 8 9 9 11 10 7 7 8 8 9 10 11 12 13 15 17 18 18 19 19 19 20 20 19 20 20 20 18 16 16
22 19 19 17 15 13 12 12 13 12 11 10 9 8 11 12 11 11 9 8 8 9 11 11 12 15 15 15 16 18 18 19 18 18 19 20 19 18 17 18 22 19 14
22 21 19 17 16 15 15 15 14 12 11 10 10 10 10 11 11 13 12 11 12 14 16 16 17 18 18 13 9 10 14 14 13 13 14 14 13 15 17 17 17 15 14
24 21 19 18 18 18 18 15 13 12 11 10 10 10 9 10 10 11 11 14 19 20 18 16 13 11 11 10 12 11 9 13 12 11 11 11 10 9 11 13 13 16 17
23 20 20 20 19 18 16 15 14 11 10 10 10 10 10 11 10 9 11 13 15 17 16 12 9 9 11 10 12 12 12 13 14 14 13 10 9 9 11 15 15 15 14
21 21 21 21 19 17 16 15 12 12 12 12 11 12 14 13 13 11 12 10 12 13 11 7 7 8 9 9 10 11 13 13 14 13 10 10 10 11 12 12 13 14 14
22 22 23 22 20 18 17 16 13 13 13 13 12 13 14 15 15 15 12 7 9 8 7 5 5 6 7 9 13 14 13 11 11 11 11 12 13 14 14 13 13 13 13
25 25 25 24 22 20 19 16 16 15 14 14 13 12 13 14 14 13 10 8 5 5 5 3 3 4 8 11 13 12 12 13 14 14 15 15 15 13 12 13 12 10 10
27 27 28 26 24 22 19 15 17 18 16 14 13 12 12 11 9 8 8 8 4 6 5 3 2 5 10 11 11 11 11 12 14 15 17 16 15 14 17 20 21 20 18
29 29 30 28 26 24 20 17 18 15 12 11 11 8 7 7 9 9 11 10 6 8 2 1 4 7 10 10 11 11 9 10 13 15 16 16 17 18 19 18 15 15 15
32 33 32 31 29 26 23 22 21 17 14 11 9 6 5 5 6 8 13 11 8 7 3 2 5 7 10 9 11 13 8 10 13 14 15 17 21 19 16 13 13 13 15
33 35 34 32 30 28 26 25 25 22 18 16 14 13 10 4 7 12 14 13 11 9 8 2 4 6 11 7 10 15 12 11 13 14 17 21 22 17 15 13 11 12 11
34 34 34 33 31 29 27 25 22 20 18 17 16 17 15 13 12 13 14 13 13 12 9 4 3 4 10 8 9 14 14 11 12 14 19 19 16 14 14 13 11 13 13
39 38 34 32 31 29 28 26 23 19 17 16 17 18 19 16 14 16 18 16 14 14 10 6 3 4 7 9 9 12 13 10 11 14 19 15 15 15 14 13 12 11 11
41 38 35 34 33 32 31 29 27 24 20 22 20 17 20 21 19 18 19 19 15 11 10 9 6 4 5 9 8 11 11 9 10 13 17 14 14 15 15 13 10 12 11
42 40 37 35 34 33 32 30 28 27 26 25 23 19 18 18 16 16 18 20 19 14 13 12 9 6 5 6 8 11 9 9 11 14 14 14 14 14 12 9 9 10 12
44 41 40 39 37 35 34 30 29 29 29 28 25 23 21 21 19 18 17 18 19 17 15 14 13 9 7 7 7 10 9 10 12 14 13 13 13 12 9 9 9 11 13
46 44 44 42 39 36 33 32 31 32 31 29 26 25 27 24 21 23 22 19 20 22 21 21 17 14 9 6 8 9 9 11 13 14 13 12 12 11 10 11 13 13 15
49 48 49 46 42 38 36 34 33 33 30 27 27 26 30 28 25 25 26 23 20 23 24 24 19 15 10 7 7 8 8 11 12 13 13 12 12 12 12 14 15 16 17
50 50 52 49 45 42 39 36 36 34 30 30 30 29 29 28 28 24 26 27 26 24 25 24 20 16 12 8 6 6 8 10 12 12 12 12 13 14 15 16 18 19 18
50 54 53 50 48 44 40 39 40 36 31 30 31 30 26 28 28 25 24 29 29 27 25 25 22 17 12 8 5 4 6 7 9 11 12 13 14 15 17 17 18 19 19
Wind_Direction
212 212 217 226 233 242 258 270 264 277 288 296 294 297 296 305 302 276 266 338 3 13 345 331 327 326 323 313 303 296 287 286 292 303 298 318 312 287 281 291 306 314 324
213 209 217 220 232 239 250 278 253 261 281 282 282 284 289 301 304 281 293 317 312 329 7 28 47 44 44 37 21 10 350 323 311 17 5 3 353 353 339 301 310 312 322
218 216 213 218 234 238 246 254 269 278 275 277 271 266 274 279 264 280 308 38 71 87 83 71 67 60 62 57 52 48 45 42 34 56 57 27 8 354 339 343 336 333 332
215 214 216 223 226 231 237 240 242 245 241 201 168 159 149 127 107 75 80 81 79 81 75 74 74 66 63 59 57 55 52 53 56 60 61 49 34 23 8 3 6 0 347
215 214 222 225 219 219 225 224 211 175 145 137 131 125 113 114 105 82 76 73 71 72 76 78 72 63 61 59 55 59 56 55 54 54 53 49 44 37 32 25 23 27 18
217 220 219 210 211 211 208 188 162 153 146 140 132 124 126 113 93 83 77 80 87 86 84 77 77 70 63 62 67 66 65 62 59 56 54 47 43 43 36 28 14 10 14
215 213 203 207 205 192 179 167 159 154 146 144 136 130 125 109 88 76 87 101 107 102 95 90 81 69 71 84 77 75 76 70 64 60 54 54 52 41 32 32 32 30 25
207 204 204 202 195 179 169 163 161 157 156 154 140 130 123 114 88 79 87 102 106 105 102 99 94 84 82 76 75 78 66 61 60 49 42 39 32 23 19 15 9 11 11
202 203 206 200 186 175 168 164 165 164 165 159 149 142 134 126 108 83 91 103 104 105 105 102 98 93 83 66 58 63 52 42 38 24 13 1 356 354 354 351 359 2 359
205 207 197 188 183 175 171 166 162 165 174 172 169 159 150 149 127 99 121 121 115 112 109 104 93 75 61 49 41 37 37 24 4 356 356 352 345 346 344 344 340 340 339
202 193 188 182 181 176 172 171 172 173 176 173 175 162 150 150 144 140 139 130 119 120 116 101 74 59 43 36 21 14 11 1 352 350 353 351 352 355 0 353 343 346 336
192 189 185 180 181 180 179 174 175 174 172 169 170 160 156 159 162 161 159 154 137 133 119 94 71 50 35 18 4 4 7 5 11 6 2 2 358 358 -0 358 1 355 342
189 189 186 186 185 184 184 181 173 170 166 158 160 162 159 163 171 175 176 168 150 135 131 106 71 37 14 4 7 5 6 15 19 21 22 17 12 7 349 336 337 327 325
191 190 189 190 187 187 185 187 179 172 170 164 159 163 162 162 175 189 195 181 163 145 127 97 32 359 358 4 5 6 4 12 15 18 15 11 3 349 346 349 351 356 359
192 192 193 192 191 189 189 191 187 184 182 170 158 149 162 181 189 192 186 180 178 173 165 40 354 356 360 7 16 8 4 8 11 14 10 8 3 354 353 359 10 13 9
193 196 196 194 194 195 194 189 187 191 191 189 191 182 174 179 189 177 176 178 185 194 217 328 342 12 7 16 20 11 10 6 7 7 3 0 357 356 2 7 5 4 1
201 199 197 197 197 197 199 196 194 196 199 204 211 208 208 235 210 195 188 192 199 205 211 266 351 6 10 15 19 18 9 3 0 357 355 351 349 353 355 350 350 355 349
205 208 203 198 199 201 202 201 203 210 209 205 203 202 206 218 224 209 198 206 213 219 224 246 339 8 12 6 7 13 8 358 353 351 347 341 341 345 344 351 344 343 347
206 208 207 204 203 203 201 204 208 208 214 217 214 210 203 206 214 215 216 220 224 229 223 232 295 338 360 13 2 359 1 354 347 347 346 346 344 338 336 335 336 337 333
210 210 207 206 206 204 203 206 209 207 213 220 219 214 207 200 203 204 210 216 221 228 233 236 257 288 337 1 348 341 351 351 343 341 347 344 342 339 336 335 332 332 331
214 212 211 209 211 209 208 211 213 214 217 217 213 208 212 213 210 205 208 214 219 229 243 250 263 277 295 337 327 330 344 346 346 344 346 345 342 343 346 354 353 338 329
219 216 215 213 214 212 211 213 218 219 218 216 212 212 216 217 222 226 226 226 224 231 244 251 253 264 275 311 312 327 336 344 346 346 344 343 341 344 349 343 334 327 324
221 219 218 218 216 216 213 213 218 219 219 215 214 219 224 230 233 231 227 235 238 240 245 253 248 247 263 292 299 318 334 343 343 347 342 340 341 340 336 338 338 332 331
220 220 218 218 217 214 213 213 221 227 228 224 220 222 224 225 233 242 234 234 237 238 241 245 245 245 255 270 297 322 335 339 341 344 342 341 341 340 335 336 334 327 327
223 222 221 219 218 213 210 214 223 228 230 230 228 229 234 236 240 241 242 235 237 237 236 242 239 238 241 260 294 321 333 340 348 350 350 347 347 346 340 334 332 332 330
226 225 224 222 222 216 212 214 222 227 229 235 238 238 240 248 247 248 248 226 225 230 234 232 234 230 231 248 277 308 347 2 15 15 13 10 3 355 346 339 336 334 331